This demonstration page uses our WeatherBlox Daily Observations layout. Learn more.

41.55636, -103.73856

Hourly Observations for December 3, 2019

Temp ( °F °C ) Dew Point ( °F °C ) Humidity (%) Winds ( mph kmh ) Pressure ( in mb ) Visibility ( mi km ) Precip ( " mm )
12:58 am 00:58 Mostly Cloudy 42 5.5 29 -1.6 61 61 W 10 17 30.07 1018 10 16.0934 0 0
1:58 am 01:58 Mostly Cloudy 38 3.5 29 -1.4 71 71 W 14 22 30.07 1018 10 16.0934 0 0
2:58 am 02:58 Cloudy 38 3.3 29 -1.4 72 72 W 9 15 30.06 1018 10 16.0934 0 0
3:58 am 03:58 Mostly Cloudy 37 2.9 30 -1.2 75 75 W 12 19 30.03 1017 10 16.0934 0 0
4:58 am 04:58 Mostly Clear 40 4.7 29 -1.6 64 64 WNW 10 17 30.04 1017 10 16.0934 0 0
5:58 am 05:58 Partly Cloudy 42 5.3 29 -1.8 61 61 WNW 20 31 30.03 1017 10 16.0934 0 0
6:58 am 06:58 Clear 41 5.2 29 -1.9 61 61 WNW 23 37 29.99 1016 10 16.0934 0 0
7:58 am 07:58 Partly Cloudy 41 4.9 28 -2 61 61 WNW 21 33 29.98 1015 10 16.0934 0 0
8:58 am 08:58 Clear 36 2.4 28 -2.3 71 71 WNW 10 17 30.01 1016 10 16.0934 0 0
9:58 am 09:58 Clear 36 2.4 28 -2.2 72 72 NW 16 26 30.02 1017 10 16.0934 0 0
11:58 am 11:58 Clear 37 2.7 28 -2.2 70 70 WNW 14 22 30.03 1017 10 16.0934 0 0
12:58 pm 12:58 Clear 37 2.7 28 -2.2 70 70 WNW 17 28 30.03 1017 10 16.0934 0 0
1:58 pm 13:58 Clear 37 2.5 27 -2.6 69 69 WNW 18 30 30.04 1017 10 16.0934 0 0
2:58 pm 14:58 Sunny 35 1.6 28 -2.5 74 74 NW 13 20 30.06 1018 10 16.0934 0 0
3:58 pm 15:58 Sunny 35 1.7 28 -2.4 75 75 NNW 8 13 30.1 1019 10 16.0934 0 0
4:58 pm 16:58 Sunny 37 2.9 28 -2.2 69 69 NW 10 17 30.1 1019 10 16.0934 0 0
5:58 pm 17:58 Sunny 39 4.1 29 -1.8 66 66 WNW 7 11 30.08 1019 10 16.0934 0 0
6:58 pm 18:58 Sunny 41 5 29 -1.7 62 62 WNW 12 19 30.08 1019 10 16.0934 0 0
7:58 pm 19:58 Sunny 41 5.2 29 -1.6 62 62 NW 20 31 30.06 1018 10 16.0934 0 0
8:58 pm 20:58 Sunny 42 5.6 29 -1.8 59 59 NW 20 31 30.07 1018 10 16.0934 0 0
9:58 pm 21:58 Sunny 42 5.6 29 -1.8 59 59 WNW 24 39 30.07 1018 10 16.0934 0 0
10:58 pm 22:58 Sunny 42 5.3 29 -1.9 60 60 WNW 22 35 30.08 1019 10 16.0934 0 0
11:58 pm 23:58 Clear 40 4.3 29 -1.8 65 65 WNW 17 28 30.09 1019 10 16.0934 0 0

Powered by AerisWeather